Location: Unspecified
(0.0000°N, 0.0000°E)
Time: 22:28:41
(UTC+00:00)

ATLAS 5 CENTAUR R/B - Pass Details

Date: 15 August 2025
Orbit: 7569 x 34873 km, 11.0° (Epoch: 20 April)

Event Time Altitude Azimuth Distance (km) Brightness Sun altitude
Rises 09:39:19 0° 281° (W) 12,566 ? 51.5°
Reaches altitude 10° 09:46:15 10° 280° (W) 11,842 ? 53.1°
Maximum altitude 19:25:32 83° 143° (SE) 24,918 ? -19.7°
Enters shadow 21:18:45 37° 79° (E) 13,310 ? -46.8°
Exits shadow 21:28:44 25° 79° (ENE) 12,967 ? -49.1°
Drops below altitude 10° 21:40:16 10° 78° (ENE) 13,049 ? -51.8°
Sets 21:47:54 0° 78° (ENE) 13,409 ? -53.5°
